Date,TemperatureHighF,TemperatureAvgF,TemperatureLowF,DewpointHighF,DewpointAvgF,DewpointLowF,HumidityHigh,HumidityAvg,HumidityLow,PressureMaxIn,PressureMinIn,WindSpeedMaxMPH,WindSpeedAvgMPH,GustSpeedMaxMPH,PrecipitationSumIn
2013-11-1,61.5,50.8,43.5,45.5,41.8,39.4,87,72,49,29.96,29.63,16,6,21,0.05
2013-11-2,56.3,46.9,39.2,43.2,38.1,33.3,84,72,47,30.20,29.96,15,6,20,0.01
2013-11-3,60.9,50.1,35.6,40.8,36.9,30.4,86,62,43,30.21,29.92,20,8,31,0.01
2013-11-4,60.9,56.0,50.5,51.7,46.5,40.6,81,71,61,30.10,29.92,19,7,30,0.00
2013-11-5,60.9,56.7,52.3,59.2,55.1,51.7,98,94,82,30.11,29.82,15,7,23,0.18
2013-11-6,60.8,41.2,35.6,59.0,37.4,31.8,98,87,67,30.35,29.83,19,7,28,0.02
2013-11-7,56.3,43.2,33.2,38.7,31.3,24.7,89,66,34,30.39,30.31,15,4,21,0.01
2013-11-8,65.6,51.3,33.6,40.9,33.6,24.4,75,53,31,30.37,29.87,21,9,34,0.01
2013-11-9,67.1,54.5,45.6,42.5,37.5,32.9,76,55,29,30.32,29.96,15,5,21,0.00
2013-11-10,59.9,49.5,35.6,37.5,33.2,27.1,85,55,29,30.44,30.20,8,2,11,0.00
2013-11-11,61.3,48.5,28.2,50.4,38.2,16.8,92,68,49,30.67,30.15,16,7,25,0.00
2013-11-12,36.8,26.2,17.0,16.8,11.3,4.6,75,55,28,30.92,30.67,13,4,22,0.00
2013-11-13,49.4,35.8,20.8,24.5,15.2,7.6,61,44,25,30.74,30.20,18,8,27,0.00
2013-11-14,55.7,44.1,34.1,29.2,25.7,21.8,65,49,31,30.22,29.96,21,10,27,0.00
2013-11-15,59.9,49.9,44.2,46.7,39.1,26.6,85,67,48,29.99,29.74,19,8,28,0.00
2013-11-16,68.9,61.5,50.9,60.3,55.6,46.7,90,81,71,29.76,29.40,26,14,43,0.01
2013-11-17,68.5,60.9,46.5,62.8,40.5,18.6,85,52,16,30.06,29.31,29,12,40,0.00
2013-11-18,62.0,47.6,36.8,37.6,31.1,21.8,88,56,24,30.29,30.06,10,4,15,0.00
2013-11-19,60.8,48.5,33.9,36.6,27.6,21.7,72,47,24,30.28,30.01,19,6,25,0.00
2013-11-20,50.5,44.5,38.8,41.9,33.7,15.2,98,71,26,30.04,29.90,17,6,27,0.24
2013-11-21,50.1,42.8,30.7,48.8,40.8,29.4,99,93,76,30.43,29.97,15,4,23,0.31
2013-11-22,31.6,27.9,23.7,29.1,24.0,19.8,95,85,80,30.65,30.42,13,6,22,0.00
2013-11-23,28.9,22.7,13.4,20.2,10.7,2.2,85,61,34,30.84,30.63,11,5,20,0.00
2013-11-24,29.8,20.7,9.8,11.7,7.4,2.9,78,57,35,30.84,30.37,9,3,12,0.00
2013-11-25,39.0,32.4,27.6,23.9,18.5,10.4,75,56,47,30.37,30.18,9,4,16,0.00
2013-11-26,36.5,28.2,20.6,26.9,20.8,7.7,83,74,55,30.43,30.18,14,4,20,0.00
2013-11-27,32.0,22.7,15.2,12.9,8.0,4.8,64,53,34,30.49,30.20,14,4,23,0.00
2013-11-28,43.7,32.6,24.2,25.3,18.5,10.6,70,56,47,30.54,30.18,15,4,19,0.00
2013-11-29,52.3,35.9,21.3,32.2,24.2,14.7,76,63,44,30.55,30.28,11,3,15,0.00
2013-11-30,58.2,45.3,36.6,41.2,34.3,26.1,88,66,53,30.29,30.05,15,5,23,0.00